Location: Hurstbourne Priors
(51.2000°N, 1.3667°W)
Time: 22:13:44
(UTC+00:00)

CZ-4C R/B - Pass Details

Date: 09 April 2020
Orbit: 637 x 1365 km, 63.4° (Epoch: 26 May)

Event Time Altitude Azimuth Distance (km) Brightness Sun altitude
Rises 22:36:22 0° 314° (NW) 3,794 6.7 -27.6°
Reaches altitude 10° 22:38:52 10° 311° (NW) 2,938 5.8 -27.8°
Maximum altitude 22:45:49 58° 235° (SW) 1,404 3.1 -28.3°
Enters shadow 22:46:58 53° 203° (SSW) 1,489 3.1 -28.3°
